星链-34418 (STARLINK-34418)

导读

STARLINK-34418是一颗由美国发射的星链卫星,隶属于SpaceX公司的星链星座。星链计划旨在构建全球卫星互联网星座,为全球范围提供高速低延迟的宽带互联网接入服务。该卫星于2025年6月18日发射入轨,将承担相应的互联网接入任务,推进星链星座的全球组网进程。

Basic Information
目录编号:
64461
目录名称:
STARLINK-34418
国际标识:
2025-130Z
轨道中心:
EARTH
卫星名称:
星链-34418
卫星全名:
星链-34418 (STARLINK-34418)
卫星状态:
在轨 (已飞行443 天)
发射日期:
2025-06-18 UTC
国别 :
美国 (US)
星等 :
--
Orbit Information
数据来源 国际轨道数据
星历时间: 2026-09-04T04:16:29+0800
11小时前
查看轨道信息
半长轴: 6840.93km
偏心率: 0.0001761
轨道倾角: 53.161°
近地点辐角 51.526°
升交点赤经 339.305°
平近点角 308.590°
近地点: 461.588km
远地点: 463.998km
周期: 93.850分钟
每日圈数: 15.343701
Detailed Information
固有亮度:
5
最大亮度:
2.5
卫星平台:
Starlink V1.0
覆盖范围:
全球
运营商:
太空探索技术公司
运营商所在国:
美国
制造商(研发单位):
太空探索技术公司
制造商所在国:
美国
使用方式:
暂无
Satellite Introduction
Starlink 计划是 SpaceX 推出的全球卫星互联网项目,通过发射低轨道卫星,为全球尤其是偏远地区提供高速、低延迟的互联网服务。自 2019 年起,Starlink 已部署数千颗卫星,旨在缩小全球数字鸿沟,推动互联网普及。该项目还为军事、航空等行业提供通信支持,带来广泛经济效益。
2D Orbit Map
3D Orbit Map
Orbit Altitude Analysis Chart
Orbit Inclination Analysis Chart
Orbit Comprehensive Analysis Chart
View Comprehensive Chart
Conjunction Data List
Event ID Objects TCA Miss Dist (km) Collision Risk Probability Collision Risk Index (CRI) Action
CDM_260904-170506-446106-592521
2026-09-04T
17:05:32+0000
0.541 km
远距离
1.126951E-4 高风险 0.76
CDM_260905-062206-446106-592521
2026-09-05T
06:22:44+0000
1.020 km
极远距离
1.573513E-5 中风险 0.59
CDM_260905-095902-390706-446121
USA 120 (23907)
2026-09-05T
09:59:10+0000
1.391 km
极远距离
2.275889E-6 低风险 0.42
CDM_260904-183906-446106-592521
2026-09-04T
18:39:19+0000
2.005 km
极远距离
1.865853E-6 低风险 0.4
CDM_260903-214106-323806-446123
2026-09-03T
21:41:49+0000
2.556 km
极远距离
1.677199E-6 低风险 0.39
CDM_260903-115102-054706-446125
USA 55 (20547)
2026-09-03T
11:51:41+0000
2.702 km
极远距离
1.511354E-6 低风险 0.39
CDM_260905-044806-446106-592521
2026-09-05T
04:48:57+0000
2.292 km
极远距离
1.386027E-6 低风险 0.38
CDM_260903-201905-374606-446121
2026-09-03T
20:19:02+0000
2.778 km
极远距离
1.321558E-6 低风险 0.37
CDM_260905-144705-187006-446121
2026-09-05T
14:47:33+0000
2.247 km
极远距离
1.253357E-6 低风险 0.37
CDM_260905-053506-446106-995921
2026-09-05T
05:35:27+0000
2.588 km
极远距离
1.090282E-6 低风险 0.36